"Sample Date","Sample Time","Sample Value","Units","Flow Rate","Sample Interval","Number Channels","Micron Size 0","Counts/Channel 0","Micron Size 1","Counts/Channel 1","Micron Size 2","Counts/Channel 2","Micron Size 3","Counts/Channel 3","Micron Size 4","Counts/Channel 4","Micron Size 5","Counts/Channel 5","Micron Size 6","Counts/Channel 6","Micron Size 7","Counts/Channel 7","Micron Size 8","Counts/Channel 8","Micron Size 9","Counts/Channel 9","Micron Size 10","Counts/Channel 10","Micron Size 11","Counts/Channel 11","Micron Size 12","Counts/Channel 12","Micron Size 13","Counts/Channel 13","Micron Size 14","Counts/Channel 14","Micron Size 15","Counts/Channel 15","Micron Size 16","Counts/Channel 16","Micron Size 17","Counts/Channel 17","Micron Size 18","Counts/Channel 18","Micron Size 19","Counts/Channel 19","Micron Size 20","Counts/Channel 20","Micron Size 21","Counts/Channel 21","Micron Size 22","Counts/Channel 22","Micron Size 23","Counts/Channel 23","Micron Size 24","Counts/Channel 24","Micron Size 25","Counts/Channel 25","Micron Size 26","Counts/Channel 26","Micron Size 27","Counts/Channel 27","Micron Size 28","Counts/Channel 28","Micron Size 29","Counts/Channel 29","Micron Size 30","Counts/Channel 30","Micron Size 31","Counts/Channel 31"
"03/08/08","20:00:02",153338.000,"cc",28300.916,6.00,6,0.100,98959.000,0.200,36585.000,0.300,14299.000,0.500,3378.000,1.000,117.000,5.000,0
"03/08/08","20:00:08",160178.000,"cc",28352.133,6.00,6,0.100,91474.000,0.200,44686.000,0.300,19481.000,0.500,4397.000,1.000,140.000,5.000,0
"03/08/08","20:00:14",156903.000,"cc",28327.547,6.00,6,0.100,97115.000,0.200,39867.000,0.300,16309.000,0.500,3477.000,1.000,135.000,5.000,0
"03/08/08","20:00:20",157152.000,"cc",28269.447,6.00,6,0.100,114649.000,0.200,30886.000,0.300,9402.000,0.500,2087.000,1.000,128.000,5.000,0
"03/08/08","20:00:26",128888.000,"cc",28274.600,6.00,6,0.100,87780.000,0.200,28119.000,0.300,10609.000,0.500,2259.000,1.000,121.000,5.000,0
"03/08/08","20:00:32",107904.000,"cc",28326.996,6.00,6,0.100,72885.000,0.200,23301.000,0.300,9653.000,0.500,1983.000,1.000,82.000,5.000,0
"03/08/08","20:00:38",111886.000,"cc",28349.490,6.00,6,0.100,74135.000,0.200,24077.000,0.300,11223.000,0.500,2347.000,1.000,104.000,5.000,0
"03/08/08","20:00:44",99276.000,"cc",28373.260,6.00,6,0.100,55421.000,0.200,24598.000,0.300,15620.000,0.500,3537.000,1.000,100.000,5.000,0
"03/08/08","20:00:50",93003.000,"cc",28334.647,6.00,6,0.100,54562.000,0.200,21605.000,0.300,13487.000,0.500,3228.000,1.000,121.000,5.000,0
"03/08/08","20:00:56",75958.000,"cc",28330.252,6.00,6,0.100,39256.000,0.200,19064.000,0.300,13952.000,0.500,3586.000,1.000,100.000,5.000,0
"03/08/08","20:01:02",72456.000,"cc",28215.766,6.00,6,0.100,46421.000,0.200,14439.000,0.300,8967.000,0.500,2530.000,1.000,99.000,5.000,0
"03/08/08","20:01:08",76448.000,"cc",28152.606,6.00,6,0.100,44548.000,0.200,16298.000,0.300,11975.000,0.500,3521.000,1.000,106.000,5.000,0
"03/08/08","20:01:14",46650.000,"cc",28385.865,6.00,6,0.100,29126.000,0.200,9233.000,0.300,6239.000,0.500,1975.000,1.000,77.000,5.000,0
"03/08/08","20:01:20",45736.000,"cc",28362.477,6.00,6,0.100,28803.000,0.200,8843.000,0.300,5965.000,0.500,2047.000,1.000,78.000,5.000,0
"03/08/08","20:01:26",46704.000,"cc",28275.787,6.00,6,0.100,31234.000,0.200,8343.000,0.300,5121.000,0.500,1934.000,1.000,72.000,5.000,0
"03/08/08","20:01:32",64148.000,"cc",28308.672,6.00,6,0.100,43109.000,0.200,10932.000,0.300,7166.000,0.500,2824.000,1.000,117.000,5.000,0
"03/08/08","20:01:38",86096.000,"cc",28347.184,6.00,6,0.100,64068.000,0.200,13051.000,0.300,6399.000,0.500,2477.000,1.000,101.000,5.000,0
"03/08/08","20:01:44",135771.000,"cc",28322.988,6.00,6,0.100,111200.000,0.200,18291.000,0.300,4512.000,0.500,1674.000,1.000,94.000,5.000,0
"03/08/08","20:01:50",109684.000,"cc",28297.022,6.00,6,0.100,88465.000,0.200,14797.000,0.300,4436.000,0.500,1892.000,1.000,94.000,5.000,0
"03/08/08","20:01:56",91654.000,"cc",28339.441,6.00,6,0.100,73760.000,0.200,12197.000,0.300,3909.000,0.500,1687.000,1.000,101.000,5.000,0
"03/08/08","20:02:02",91501.000,"cc",28286.617,6.00,6,0.100,73699.000,0.200,12062.000,0.300,3934.000,0.500,1702.000,1.000,104.000,5.000,0
"03/08/08","20:02:08",89127.000,"cc",28329.506,6.00,6,0.100,73028.000,0.200,11506.000,0.300,3080.000,0.500,1399.000,1.000,114.000,5.000,0
"03/08/08","20:02:14",87728.000,"cc",28327.363,6.00,6,0.100,72845.000,0.200,10978.000,0.300,2634.000,0.500,1215.000,1.000,56.000,5.000,0
"03/08/08","20:02:20",75465.000,"cc",28272.588,6.00,6,0.100,62969.000,0.200,9021.000,0.300,2349.000,0.500,1078.000,1.000,48.000,5.000,0
"03/08/08","20:02:26",73694.000,"cc",28313.291,6.00,6,0.100,60344.000,0.200,8587.000,0.300,3070.000,0.500,1592.000,1.000,101.000,5.000,0
"03/08/08","20:02:32",93914.000,"cc",28351.807,6.00,6,0.100,78927.000,0.200,11357.000,0.300,2468.000,0.500,1077.000,1.000,85.000,5.000,0
"03/08/08","20:02:38",84619.000,"cc",28325.492,6.00,6,0.100,70952.000,0.200,10109.000,0.300,2422.000,0.500,1055.000,1.000,81.000,5.000,0
"03/08/08","20:02:44",108917.000,"cc",28306.969,6.00,6,0.100,91736.000,0.200,12983.000,0.300,2770.000,0.500,1301.000,1.000,127.000,5.000,0
"03/08/08","20:02:50",133290.000,"cc",28265.098,6.00,6,0.100,112388.000,0.200,16383.000,0.300,2996.000,0.500,1365.000,1.000,158.000,5.000,0
"03/08/08","20:02:56",81585.000,"cc",28304.549,6.00,6,0.100,69024.000,0.200,9671.000,0.300,1931.000,0.500,881.000,1.000,78.000,5.000,0
"03/08/08","20:03:02",71437.000,"cc",28314.613,6.00,6,0.100,60628.000,0.200,7716.000,0.300,1996.000,0.500,977.000,1.000,120.000,5.000,0
"03/08/08","20:03:08",80797.000,"cc",28308.623,6.00,6,0.100,69005.000,0.200,8523.000,0.300,2099.000,0.500,1031.000,1.000,139.000,5.000,0
"03/08/08","20:03:14",75399.000,"cc",28386.816,6.00,6,0.100,65082.000,0.200,7287.000,0.300,1922.000,0.500,1026.000,1.000,82.000,5.000,0
"03/08/08","20:03:20",105538.000,"cc",28326.070,6.00,6,0.100,90493.000,0.200,12045.000,0.300,2054.000,0.500,840.000,1.000,106.000,5.000,0
"03/08/08","20:03:26",104568.000,"cc",28271.305,6.00,6,0.100,90504.000,0.200,11433.000,0.300,1742.000,0.500,796.000,1.000,93.000,5.000,0
"03/08/08","20:03:32",57299.000,"cc",28334.609,6.00,6,0.100,49215.000,0.200,6231.000,0.300,1207.000,0.500,586.000,1.000,60.000,5.000,0
"03/08/08","20:03:38",54644.000,"cc",28325.033,6.00,6,0.100,46696.000,0.200,5944.000,0.300,1315.000,0.500,635.000,1.000,54.000,5.000,0
"03/08/08","20:03:44",52883.000,"cc",28331.025,6.00,6,0.100,45405.000,0.200,5518.000,0.300,1203.000,0.500,668.000,1.000,89.000,5.000,0
"03/08/08","20:03:50",58012.000,"cc",28280.551,6.00,6,0.100,50453.000,0.200,5934.000,0.300,1026.000,0.500,535.000,1.000,64.000,5.000,0
"03/08/08","20:03:56",72296.000,"cc",28302.090,6.00,6,0.100,61757.000,0.200,8385.000,0.300,1355.000,0.500,693.000,1.000,106.000,5.000,0
"03/08/08","20:04:02",67247.000,"cc",28319.654,6.00,6,0.100,58099.000,0.200,7535.000,0.300,1087.000,0.500,468.000,1.000,58.000,5.000,0
"03/08/08","20:04:08",73957.000,"cc",28321.270,6.00,6,0.100,63671.000,0.200,8463.000,0.300,1199.000,0.500,530.000,1.000,94.000,5.000,0
"03/08/08","20:04:14",72258.000,"cc",28276.592,6.00,6,0.100,62067.000,0.200,8398.000,0.300,1161.000,0.500,560.000,1.000,72.000,5.000,0
"03/08/08","20:04:20",58699.000,"cc",28360.190,6.00,6,0.100,50463.000,0.200,6709.000,0.300,989.000,0.500,483.000,1.000,55.000,5.000,0
"03/08/08","20:04:26",62251.000,"cc",28354.830,6.00,6,0.100,53329.000,0.200,7191.000,0.300,1064.000,0.500,558.000,1.000,109.000,5.000,0
"03/08/08","20:04:32",59474.000,"cc",28300.941,6.00,6,0.100,50781.000,0.200,6864.000,0.300,1124.000,0.500,609.000,1.000,96.000,5.000,0
"03/08/08","20:04:38",55123.000,"cc",28267.705,6.00,6,0.100,47372.000,0.200,6067.000,0.300,984.000,0.500,614.000,1.000,86.000,5.000,0
"03/08/08","20:04:44",58257.000,"cc",28299.320,6.00,6,0.100,49899.000,0.200,6521.000,0.300,1099.000,0.500,602.000,1.000,136.000,5.000,0
"03/08/08","20:04:50",64849.000,"cc",28376.881,6.00,6,0.100,56000.000,0.200,7280.000,0.300,961.000,0.500,512.000,1.000,96.000,5.000,0
"03/08/08","20:04:56",116181.000,"cc",28338.418,6.00,6,0.100,100690.000,0.200,13585.000,0.300,1295.000,0.500,516.000,1.000,95.000,5.000,0
"03/08/08","20:05:02",150443.000,"cc",28332.565,6.00,6,0.100,130615.000,0.200,17929.000,0.300,1365.000,0.500,458.000,1.000,76.000,5.000,0
"03/08/08","20:05:08",117771.000,"cc",28255.098,6.00,6,0.100,102718.000,0.200,13572.000,0.300,1032.000,0.500,369.000,1.000,80.000,5.000,0
"03/08/08","20:05:14",108533.000,"cc",28302.303,6.00,6,0.100,94837.000,0.200,12230.000,0.300,1034.000,0.500,360.000,1.000,72.000,5.000,0
"03/08/08","20:05:20",88970.000,"cc",28375.955,6.00,6,0.100,77284.000,0.200,10416.000,0.300,913.000,0.500,293.000,1.000,64.000,5.000,0
"03/08/08","20:05:26",80955.000,"cc",28268.207,6.00,6,0.100,70340.000,0.200,9425.000,0.300,810.000,0.500,323.000,1.000,57.000,5.000,0
"03/08/08","20:05:32",74461.000,"cc",28342.523,6.00,6,0.100,64406.000,0.200,8692.000,0.300,915.000,0.500,389.000,1.000,59.000,5.000,0
"03/08/08","20:05:38",75113.000,"cc",28307.494,6.00,6,0.100,64507.000,0.200,8996.000,0.300,1064.000,0.500,458.000,1.000,88.000,5.000,0
"03/08/08","20:05:44",54211.000,"cc",28345.522,6.00,6,0.100,46255.000,0.200,6436.000,0.300,944.000,0.500,482.000,1.000,94.000,5.000,0
"03/08/08","20:05:50",66608.000,"cc",28327.508,6.00,6,0.100,57471.000,0.200,7984.000,0.300,770.000,0.500,323.000,1.000,60.000,5.000,0
"03/08/08","20:05:56",47636.000,"cc",28447.957,6.00,6,0.100,41254.000,0.200,5359.000,0.300,630.000,0.500,327.000,1.000,66.000,5.000,0
"03/08/08","20:06:02",83894.000,"cc",28205.137,6.00,6,0.100,72652.000,0.200,9893.000,0.300,894.000,0.500,394.000,1.000,61.000,5.000,0
"03/08/08","20:06:08",52323.000,"cc",28287.713,6.00,6,0.100,45517.000,0.200,6012.000,0.300,527.000,0.500,231.000,1.000,36.000,5.000,0
"03/08/08","20:06:14",106222.000,"cc",28308.779,6.00,6,0.100,91659.000,0.200,12870.000,0.300,1089.000,0.500,501.000,1.000,103.000,5.000,0
"03/08/08","20:06:20",53444.000,"cc",28298.709,6.00,6,0.100,45825.000,0.200,6505.000,0.300,685.000,0.500,359.000,1.000,70.000,5.000,0
"03/08/08","20:06:26",61028.000,"cc",28391.738,6.00,6,0.100,52518.000,0.200,7374.000,0.300,728.000,0.500,334.000,1.000,74.000,5.000,0
"03/08/08","20:06:32",84138.000,"cc",28353.035,6.00,6,0.100,72496.000,0.200,10294.000,0.300,889.000,0.500,399.000,1.000,60.000,5.000,0
"03/08/08","20:06:38",51510.000,"cc",28334.266,6.00,6,0.100,44129.000,0.200,6220.000,0.300,705.000,0.500,383.000,1.000,73.000,5.000,0
"03/08/08","20:06:44",63485.000,"cc",28251.191,6.00,6,0.100,54824.000,0.200,7652.000,0.300,666.000,0.500,273.000,1.000,70.000,5.000,0
"03/08/08","20:06:50",100583.000,"cc",28273.885,6.00,6,0.100,87483.000,0.200,11937.000,0.300,792.000,0.500,317.000,1.000,54.000,5.000,0
"03/08/08","20:06:56",65119.000,"cc",28279.949,6.00,6,0.100,56534.000,0.200,7676.000,0.300,620.000,0.500,239.000,1.000,50.000,5.000,0
"03/08/08","20:07:02",61354.000,"cc",28269.623,6.00,6,0.100,53032.000,0.200,7318.000,0.300,655.000,0.500,294.000,1.000,55.000,5.000,0
"03/08/08","20:07:08",69629.000,"cc",28423.768,6.00,6,0.100,60747.000,0.200,7846.000,0.300,691.000,0.500,280.000,1.000,65.000,5.000,0
"03/08/08","20:07:14",80541.000,"cc",28357.818,6.00,6,0.100,70546.000,0.200,9056.000,0.300,622.000,0.500,251.000,1.000,66.000,5.000,0
"03/08/08","20:07:20",136660.000,"cc",28254.342,6.00,6,0.100,118418.000,0.200,16587.000,0.300,1163.000,0.500,411.000,1.000,81.000,5.000,0
"03/08/08","20:07:26",117032.000,"cc",28338.746,6.00,6,0.100,101464.000,0.200,13839.000,0.300,1133.000,0.500,492.000,1.000,104.000,5.000,0
"03/08/08","20:07:32",184007.000,"cc",28328.334,6.00,6,0.100,159560.000,0.200,22347.000,0.300,1528.000,0.500,456.000,1.000,116.000,5.000,0
"03/08/08","20:07:38",130942.000,"cc",28345.145,6.00,6,0.100,114082.000,0.200,15434.000,0.300,1035.000,0.500,336.000,1.000,55.000,5.000,0
"03/08/08","20:07:44",143940.000,"cc",28341.205,6.00,6,0.100,125649.000,0.200,16730.000,0.300,1097.000,0.500,382.000,1.000,82.000,5.000,0
"03/08/08","20:07:50",102306.000,"cc",28285.557,6.00,6,0.100,89483.000,0.200,11752.000,0.300,761.000,0.500,258.000,1.000,52.000,5.000,0
"03/08/08","20:07:56",94781.000,"cc",28230.525,6.00,6,0.100,83076.000,0.200,10871.000,0.300,603.000,0.500,196.000,1.000,35.000,5.000,0
"03/08/08","20:08:02",85809.000,"cc",28377.758,6.00,6,0.100,75183.000,0.200,9632.000,0.300,698.000,0.500,236.000,1.000,60.000,5.000,0
"03/08/08","20:08:08",48860.000,"cc",28327.881,6.00,6,0.100,42136.000,0.200,5670.000,0.300,658.000,0.500,326.000,1.000,70.000,5.000,0
"03/08/08","20:08:14",96686.000,"cc",28244.254,6.00,6,0.100,83934.000,0.200,11290.000,0.300,966.000,0.500,404.000,1.000,92.000,5.000,0
"03/08/08","20:08:20",77617.000,"cc",28333.797,6.00,6,0.100,67108.000,0.200,9160.000,0.300,857.000,0.500,405.000,1.000,87.000,5.000,0
"03/08/08","20:08:26",113868.000,"cc",28311.527,6.00,6,0.100,99035.000,0.200,13098.000,0.300,1130.000,0.500,497.000,1.000,108.000,5.000,0
"03/08/08","20:08:32",114653.000,"cc",28466.229,6.00,6,0.100,99619.000,0.200,13379.000,0.300,1058.000,0.500,473.000,1.000,124.000,5.000,0
"03/08/08","20:08:38",73990.000,"cc",28225.537,6.00,6,0.100,63218.000,0.200,8791.000,0.300,1195.000,0.500,656.000,1.000,130.000,5.000,0
"03/08/08","20:08:44",150276.000,"cc",28271.377,6.00,6,0.100,128142.000,0.200,18659.000,0.300,1926.000,0.500,1167.000,1.000,382.000,5.000,0
"03/08/08","20:08:50",129423.000,"cc",28340.787,6.00,6,0.100,110011.000,0.200,16053.000,0.300,1950.000,0.500,1081.000,1.000,328.000,5.000,0
"03/08/08","20:08:56",92415.000,"cc",28337.232,6.00,6,0.100,74380.000,0.200,12746.000,0.300,3106.000,0.500,1732.000,1.000,451.000,5.000,0
"03/08/08","20:09:02",122132.000,"cc",28330.557,6.00,6,0.100,96915.000,0.200,17598.000,0.300,4701.000,0.500,2313.000,1.000,605.000,5.000,0
"03/08/08","20:09:08",96670.000,"cc",28344.022,6.00,6,0.100,56113.000,0.200,22829.000,0.300,12372.000,0.500,4651.000,1.000,705.000,5.000,0
"03/08/08","20:09:14",247533.000,"cc",28261.346,6.00,6,0.100,122657.000,0.200,58017.000,0.300,45915.000,0.500,19154.000,1.000,1790.000,5.000,0
"03/08/08","20:09:20",345541.000,"cc",28330.361,6.00,6,0.100,153502.000,0.200,84127.000,0.300,74137.000,0.500,31207.000,1.000,2568.000,5.000,0
"03/08/08","20:09:26",339613.000,"cc",28316.147,6.00,6,0.100,183584.000,0.200,83639.000,0.300,53116.000,0.500,17963.000,1.000,1311.000,5.000,0
"03/08/08","20:09:32",291788.000,"cc",28327.818,6.00,6,0.100,176364.000,0.200,67729.000,0.300,35743.000,0.500,11070.000,1.000,882.000,5.000,0
"03/08/08","20:09:38",263739.000,"cc",28347.467,6.00,6,0.100,166925.000,0.200,61424.000,0.300,26674.000,0.500,8033.000,1.000,683.000,5.000,0
"03/08/08","20:09:44",272995.000,"cc",28297.875,6.00,6,0.100,160542.000,0.200,76048.000,0.300,28166.000,0.500,7624.000,1.000,615.000,5.000,0
"03/08/08","20:09:50",216920.000,"cc",28294.666,6.00,6,0.100,126378.000,0.200,64139.000,0.300,21055.000,0.500,4941.000,1.000,407.000,5.000,0
"03/08/08","20:09:56",187546.000,"cc",28344.352,6.00,6,0.100,117553.000,0.200,49960.000,0.300,16132.000,0.500,3573.000,1.000,328.000,5.000,0
"03/08/08","20:10:02",143068.000,"cc",28351.328,6.00,6,0.100,85141.000,0.200,39957.000,0.300,15593.000,0.500,2179.000,1.000,198.000,5.000,0
"03/08/08","20:10:08",167725.000,"cc",28331.815,6.00,6,0.100,115597.000,0.200,37336.000,0.300,12750.000,0.500,1876.000,1.000,166.000,5.000,0
"03/08/08","20:10:14",151272.000,"cc",28240.397,6.00,6,0.100,92784.000,0.200,39789.000,0.300,16346.000,0.500,2207.000,1.000,146.000,5.000,0
"03/08/08","20:10:20",132652.000,"cc",28373.813,6.00,6,0.100,86469.000,0.200,32115.000,0.300,12121.000,0.500,1812.000,1.000,135.000,5.000,0
"03/08/08","20:10:26",116776.000,"cc",28251.650,6.00,6,0.100,72994.000,0.200,30464.000,0.300,11515.000,0.500,1694.000,1.000,109.000,5.000,0
"03/08/08","20:10:32",124175.000,"cc",28292.393,6.00,6,0.100,78629.000,0.200,31919.000,0.300,11725.000,0.500,1770.000,1.000,132.000,5.000,0
"03/08/08","20:10:38",114315.000,"cc",28379.936,6.00,6,0.100,73705.000,0.200,28847.000,0.300,9975.000,0.500,1667.000,1.000,121.000,5.000,0
"03/08/08","20:10:44",118880.000,"cc",28354.877,6.00,6,0.100,73940.000,0.200,32161.000,0.300,10803.000,0.500,1805.000,1.000,171.000,5.000,0
"03/08/08","20:10:50",134568.000,"cc",28260.455,6.00,6,0.100,83608.000,0.200,36295.000,0.300,12530.000,0.500,1957.000,1.000,178.000,5.000,0
"03/08/08","20:10:56",101974.000,"cc",28359.613,6.00,6,0.100,56824.000,0.200,31456.000,0.300,11654.000,0.500,1853.000,1.000,187.000,5.000,0
"03/08/08","20:11:02",104066.000,"cc",28327.363,6.00,6,0.100,62672.000,0.200,29009.000,0.300,10529.000,0.500,1651.000,1.000,205.000,5.000,0
"03/08/08","20:11:08",94470.000,"cc",28275.563,6.00,6,0.100,62439.000,0.200,22771.000,0.300,7728.000,0.500,1396.000,1.000,136.000,5.000,0
"03/08/08","20:11:14",94402.000,"cc",28279.164,6.00,6,0.100,65455.000,0.200,19950.000,0.300,7497.000,0.500,1368.000,1.000,132.000,5.000,0
"03/08/08","20:11:20",74708.000,"cc",28344.150,6.00,6,0.100,49680.000,0.200,16314.000,0.300,7403.000,0.500,1225.000,1.000,86.000,5.000,0
"03/08/08","20:11:26",80894.000,"cc",28347.711,6.00,6,0.100,55076.000,0.200,15646.000,0.300,8573.000,0.500,1504.000,1.000,95.000,5.000,0
"03/08/08","20:11:32",90447.000,"cc",28287.147,6.00,6,0.100,62349.000,0.200,16778.000,0.300,9410.000,0.500,1792.000,1.000,118.000,5.000,0
"03/08/08","20:11:38",87578.000,"cc",28282.156,6.00,6,0.100,59552.000,0.200,15073.000,0.300,10468.000,0.500,2326.000,1.000,159.000,5.000,0
"03/08/08","20:11:44",92070.000,"cc",28301.764,6.00,6,0.100,68194.000,0.200,14087.000,0.300,7855.000,0.500,1809.000,1.000,125.000,5.000,0
"03/08/08","20:11:50",74928.000,"cc",28330.459,6.00,6,0.100,56467.000,0.200,10807.000,0.300,6001.000,0.500,1551.000,1.000,102.000,5.000,0
"03/08/08","20:11:56",74662.000,"cc",28362.594,6.00,6,0.100,58395.000,0.200,9663.000,0.300,5103.000,0.500,1434.000,1.000,67.000,5.000,0
"03/08/08","20:12:02",83177.000,"cc",28271.559,6.00,6,0.100,66488.000,0.200,9732.000,0.300,5184.000,0.500,1695.000,1.000,78.000,5.000,0
"03/08/08","20:12:08",68633.000,"cc",28322.744,6.00,6,0.100,55423.000,0.200,8358.000,0.300,3569.000,0.500,1196.000,1.000,87.000,5.000,0
"03/08/08","20:12:14",71141.000,"cc",28386.084,6.00,6,0.100,57621.000,0.200,8963.000,0.300,3240.000,0.500,1196.000,1.000,121.000,5.000,0
"03/08/08","20:12:20",57100.000,"cc",28277.549,6.00,6,0.100,46031.000,0.200,7426.000,0.300,2537.000,0.500,1019.000,1.000,87.000,5.000,0
"03/08/08","20:12:26",68897.000,"cc",28327.449,6.00,6,0.100,56093.000,0.200,8547.000,0.300,2907.000,0.500,1210.000,1.000,140.000,5.000,0
"03/08/08","20:12:32",65320.000,"cc",28324.232,6.00,6,0.100,53617.000,0.200,7011.000,0.300,3087.000,0.500,1409.000,1.000,196.000,5.000,0
"03/08/08","20:12:38",65869.000,"cc",28256.561,6.00,6,0.100,54943.000,0.200,7384.000,0.300,2409.000,0.500,1020.000,1.000,113.000,5.000,0
"03/08/08","20:12:44",69034.000,"cc",28306.881,6.00,6,0.100,57249.000,0.200,8102.000,0.300,2473.000,0.500,1065.000,1.000,145.000,5.000,0
"03/08/08","20:12:50",61619.000,"cc",28323.217,6.00,6,0.100,51696.000,0.200,6362.000,0.300,2264.000,0.500,1142.000,1.000,155.000,5.000,0
"03/08/08","20:12:56",72936.000,"cc",28359.568,6.00,6,0.100,60722.000,0.200,8501.000,0.300,2416.000,0.500,1116.000,1.000,181.000,5.000,0
"03/08/08","20:13:02",84226.000,"cc",28272.381,6.00,6,0.100,71038.000,0.200,9383.000,0.300,2509.000,0.500,1148.000,1.000,148.000,5.000,0
"03/08/08","20:13:08",98122.000,"cc",28361.065,6.00,6,0.100,83997.000,0.200,10173.000,0.300,2561.000,0.500,1235.000,1.000,156.000,5.000,0
"03/08/08","20:13:14",89987.000,"cc",28333.971,6.00,6,0.100,76714.000,0.200,9634.000,0.300,2355.000,0.500,1096.000,1.000,188.000,5.000,0
"03/08/08","20:13:20",87096.000,"cc",28314.225,6.00,6,0.100,74425.000,0.200,9140.000,0.300,2343.000,0.500,1018.000,1.000,170.000,5.000,0
"03/08/08","20:13:26",78185.000,"cc",28299.815,6.00,6,0.100,67084.000,0.200,8093.000,0.300,1995.000,0.500,895.000,1.000,118.000,5.000,0
"03/08/08","20:13:32",76045.000,"cc",28358.871,6.00,6,0.100,65542.000,0.200,7575.000,0.300,1876.000,0.500,902.000,1.000,150.000,5.000,0
"03/08/08","20:13:38",67074.000,"cc",28273.461,6.00,6,0.100,57189.000,0.200,7317.000,0.300,1658.000,0.500,758.000,1.000,152.000,5.000,0
"03/08/08","20:13:44",82869.000,"cc",28300.014,6.00,6,0.100,70835.000,0.200,8742.000,0.300,2123.000,0.500,992.000,1.000,177.000,5.000,0
"03/08/08","20:13:50",102229.000,"cc",28366.102,6.00,6,0.100,87728.000,0.200,10633.000,0.300,2477.000,0.500,1143.000,1.000,248.000,5.000,0
"03/08/08","20:13:56",95220.000,"cc",28342.670,6.00,6,0.100,81407.000,0.200,9544.000,0.300,2638.000,0.500,1367.000,1.000,264.000,5.000,0
"03/08/08","20:14:02",92161.000,"cc",28307.309,6.00,6,0.100,77937.000,0.200,10026.000,0.300,2621.000,0.500,1265.000,1.000,312.000,5.000,0
"03/08/08","20:14:08",90369.000,"cc",28317.617,6.00,6,0.100,75269.000,0.200,10732.000,0.300,2733.000,0.500,1340.000,1.000,295.000,5.000,0
"03/08/08","20:14:14",84982.000,"cc",28300.729,6.00,6,0.100,69742.000,0.200,11016.000,0.300,2703.000,0.500,1258.000,1.000,263.000,5.000,0
"03/08/08","20:14:20",92640.000,"cc",28334.272,6.00,6,0.100,75357.000,0.200,12428.000,0.300,3274.000,0.500,1274.000,1.000,307.000,5.000,0
"03/08/08","20:14:26",84502.000,"cc",28262.943,6.00,6,0.100,69702.000,0.200,10928.000,0.300,2535.000,0.500,1095.000,1.000,242.000,5.000,0
"03/08/08","20:14:32",77566.000,"cc",28336.094,6.00,6,0.100,64177.000,0.200,9849.000,0.300,2381.000,0.500,945.000,1.000,214.000,5.000,0
"03/08/08","20:14:38",67485.000,"cc",28297.867,6.00,6,0.100,54984.000,0.200,8872.000,0.300,2278.000,0.500,1103.000,1.000,248.000,5.000,0
"03/08/08","20:14:44",99678.000,"cc",28370.449,6.00,6,0.100,83073.000,0.200,12417.000,0.300,2775.000,0.500,1140.000,1.000,273.000,5.000,0
"03/08/08","20:14:50",103796.000,"cc",28240.996,6.00,6,0.100,87175.000,0.200,12496.000,0.300,2726.000,0.500,1151.000,1.000,248.000,5.000,0
"03/08/08","20:14:56",92618.000,"cc",28318.809,6.00,6,0.100,78009.000,0.200,11034.000,0.300,2396.000,0.500,937.000,1.000,242.000,5.000,0
"03/08/08","20:15:02",84615.000,"cc",28354.891,6.00,6,0.100,70758.000,0.200,10156.000,0.300,2312.000,0.500,1142.000,1.000,247.000,5.000,0
"03/08/08","20:15:08",89259.000,"cc",28324.158,6.00,6,0.100,75224.000,0.200,10578.000,0.300,2224.000,0.500,1005.000,1.000,228.000,5.000,0
"03/08/08","20:15:14",72587.000,"cc",28257.838,6.00,6,0.100,61417.000,0.200,8411.000,0.300,1788.000,0.500,793.000,1.000,178.000,5.000,0
"03/08/08","20:15:20",78730.000,"cc",28263.113,6.00,6,0.100,66521.000,0.200,9455.000,0.300,1816.000,0.500,791.000,1.000,147.000,5.000,0
"03/08/08","20:15:26",52146.000,"cc",28374.854,6.00,6,0.100,43636.000,0.200,6488.000,0.300,1375.000,0.500,563.000,1.000,84.000,5.000,0
"03/08/08","20:15:32",63771.000,"cc",28274.277,6.00,6,0.100,53589.000,0.200,7865.000,0.300,1439.000,0.500,720.000,1.000,158.000,5.000,0
"03/08/08","20:15:38",65312.000,"cc",28340.574,6.00,6,0.100,54541.000,0.200,8283.000,0.300,1623.000,0.500,712.000,1.000,153.000,5.000,0
"03/08/08","20:15:44",104574.000,"cc",28408.598,6.00,6,0.100,89724.000,0.200,12034.000,0.300,1910.000,0.500,732.000,1.000,174.000,5.000,0
"03/08/08","20:15:50",94513.000,"cc",28331.443,6.00,6,0.100,80183.000,0.200,11435.000,0.300,1888.000,0.500,801.000,1.000,206.000,5.000,0
"03/08/08","20:15:56",80377.000,"cc",28297.281,6.00,6,0.100,68293.000,0.200,9373.000,0.300,1803.000,0.500,773.000,1.000,135.000,5.000,0
"03/08/08","20:16:02",57518.000,"cc",28313.266,6.00,6,0.100,48410.000,0.200,7106.000,0.300,1320.000,0.500,552.000,1.000,130.000,5.000,0
"03/08/08","20:16:08",61928.000,"cc",28257.098,6.00,6,0.100,51048.000,0.200,8015.000,0.300,1850.000,0.500,847.000,1.000,168.000,5.000,0
"03/08/08","20:16:14",75462.000,"cc",28349.063,6.00,6,0.100,62698.000,0.200,9753.000,0.300,1974.000,0.500,872.000,1.000,165.000,5.000,0
"03/08/08","20:16:20",91832.000,"cc",28302.408,6.00,6,0.100,77825.000,0.200,10975.000,0.300,1979.000,0.500,849.000,1.000,204.000,5.000,0